Theta_e
338 341 339 338 340 341 342 345 347 348 348 349 350 351 349 354 355 355 354 352 350 349 348 347 348 350 350 350 352 354 355 356 356 356 354 353 351 351 351 351 353 351 347 346
338 343 338 337 339 340 342 345 346 347 348 350 351 353 350 351 355 354 354 354 352 350 349 347 347 347 349 350 351 353 355 356 357 355 353 352 354 353 353 353 351 347 347 350
337 340 339 338 338 341 342 344 345 347 349 351 353 354 353 352 351 354 354 353 352 351 350 349 348 347 347 348 349 351 354 355 356 354 353 353 353 353 353 354 353 353 353 354
332 337 340 338 337 340 342 343 344 346 351 351 350 350 353 352 354 354 354 353 353 353 351 351 350 348 347 347 348 349 352 354 355 354 353 354 352 352 351 350 350 351 354 353
330 334 340 339 338 338 341 344 346 347 348 347 349 350 350 350 352 353 352 351 351 351 351 351 351 349 348 348 347 348 350 353 352 353 352 354 352 350 348 346 346 348 352 353
327 332 337 338 338 337 341 345 345 346 346 349 346 347 345 344 346 347 348 348 349 349 349 349 350 350 349 349 349 349 351 353 353 354 353 353 350 349 346 345 342 344 349 350
325 330 333 336 338 338 339 342 346 350 349 348 345 347 344 343 345 346 347 348 348 348 349 349 350 351 350 350 349 349 353 353 353 353 353 352 350 349 349 346 344 344 346 347
327 327 331 332 335 337 338 340 343 352 349 347 347 346 344 343 345 346 347 350 351 349 347 348 349 350 352 350 351 351 353 353 353 353 353 351 351 351 346 345 344 343 346 347
328 329 330 331 331 334 337 341 339 343 342 345 343 342 341 342 345 345 348 350 352 352 351 352 352 352 352 351 351 351 353 353 354 355 353 353 353 349 350 349 345 344 348 349
327 328 330 331 333 335 336 337 341 342 346 347 342 343 343 342 342 347 348 350 355 352 352 352 353 353 354 353 351 353 355 355 355 355 354 354 352 351 353 350 349 352 352 352
324 325 327 329 332 336 338 338 337 337 337 339 340 339 340 339 342 346 347 353 355 353 353 352 352 352 354 355 355 356 357 358 357 356 355 354 353 354 352 349 352 353 350 350
324 324 326 327 328 332 335 337 338 342 341 338 337 336 335 339 344 345 348 353 354 353 352 353 356 356 358 358 358 360 361 359 357 355 354 353 355 353 352 351 350 350 348 347
324 323 325 326 327 328 331 335 337 338 337 336 337 337 339 342 346 349 350 354 354 355 353 352 356 359 360 360 361 360 358 357 355 354 353 351 351 349 349 348 347 347 346 345
327 324 324 326 327 328 330 332 334 337 339 336 337 335 336 338 343 348 351 356 357 358 357 354 358 360 360 359 357 356 354 352 351 348 348 348 347 346 346 345 345 343 343 342
324 324 325 325 325 327 329 331 333 335 335 336 336 334 335 336 339 342 348 352 357 359 359 359 361 359 359 358 355 352 350 349 348 349 348 347 346 345 344 344 344 343 342 341
325 326 326 326 325 325 326 329 332 334 335 333 333 334 333 335 345 345 347 350 356 360 359 359 360 361 359 354 351 349 348 348 348 348 346 345 344 343 342 341 340 340 339 339
328 326 329 328 326 325 326 327 328 330 330 330 331 332 333 336 339 346 347 349 353 359 359 360 360 360 356 352 349 348 348 347 347 346 345 344 344 343 341 339 337 335 334 332
330 329 330 329 330 329 327 329 329 329 329 329 330 332 332 337 343 345 347 348 352 356 359 361 361 358 355 351 348 347 348 348 347 346 345 344 342 340 337 335 333 331 329 328
335 337 337 335 330 328 330 331 332 333 331 331 333 331 332 341 347 348 346 347 350 355 359 361 359 358 354 351 349 348 347 347 346 345 343 342 340 339 336 332 329 326 325 322
333 336 338 337 334 331 330 338 341 339 332 340 340 340 342 343 343 347 348 347 349 354 357 360 359 357 353 351 349 348 347 346 345 343 342 340 339 337 333 328 325 322 322 322
340 340 334 335 336 333 338 341 341 338 341 343 344 346 349 350 347 350 349 348 349 354 358 358 357 355 352 349 348 349 347 346 345 343 341 339 337 332 327 323 322 323 322 322
338 337 336 339 339 338 338 342 343 346 345 346 346 346 350 350 347 348 349 351 351 356 359 357 355 353 351 350 349 349 348 345 342 340 339 335 330 323 322 323 323 323 323 323
341 336 339 336 338 346 342 342 342 342 344 345 344 344 345 348 347 348 349 353 356 358 358 357 355 354 352 350 350 349 344 341 339 337 333 330 325 322 323 323 323 323 322 320
347 344 342 345 334 337 341 341 341 341 342 341 340 343 345 348 347 348 353 352 358 359 359 357 357 355 353 351 350 344 339 338 335 332 329 326 323 323 322 321 320 318 317 316
345 344 345 344 342 340 340 340 340 338 338 339 339 342 345 347 348 349 353 353 355 360 359 358 355 352 351 348 341 339 335 333 332 330 327 323 321 321 320 319 317 316 316 314
338 339 344 340 342 340 339 338 338 338 340 342 342 343 346 347 349 350 354 356 355 356 355 352 346 343 340 343 341 337 334 333 330 327 322 319 318 318 317 316 313 311 312 311
Wind_Speed
12 11 12 5 8 6 7 6 4 2 1 6 9 9 6 12 14 12 12 12 13 15 17 20 21 20 18 17 17 17 17 16 17 16 14 11 11 11 13 13 14 12 17 21
9 16 13 2 4 6 6 4 4 4 1 7 7 11 8 12 15 14 14 13 12 13 14 18 21 21 20 19 17 17 18 17 18 14 14 12 8 10 11 12 10 7 11 14
20 18 9 7 10 9 10 7 4 7 3 10 10 13 6 11 14 15 15 14 13 13 14 15 17 20 19 18 19 19 18 17 16 16 14 12 11 13 11 7 7 7 8 9
17 16 10 15 14 8 15 6 5 5 7 5 3 5 7 7 11 15 16 16 16 16 15 13 16 18 18 18 17 17 15 16 17 19 18 19 18 16 13 8 4 4 9 8
18 17 16 17 15 4 9 5 3 7 10 8 7 6 7 3 7 11 14 16 15 15 16 16 15 17 17 16 17 13 15 16 15 20 20 19 19 8 7 5 3 4 2 6
20 14 19 22 12 5 1 7 7 8 8 9 7 5 2 3 3 1 3 7 12 15 14 14 16 15 15 15 14 12 15 15 19 20 22 22 18 11 6 7 5 7 5 3
18 16 17 13 14 8 10 12 7 5 5 3 6 8 4 5 2 3 2 2 5 9 12 12 14 14 14 15 14 16 18 19 20 21 21 20 16 7 4 7 3 4 4 3
13 16 17 14 21 16 15 15 9 5 4 6 3 4 4 4 0 1 6 6 4 6 8 12 12 13 12 16 18 19 20 20 22 22 19 15 9 4 2 3 1 0 4 5
12 18 20 17 15 15 11 12 12 10 7 8 3 2 10 5 3 7 7 8 6 7 8 9 9 11 13 17 17 18 20 20 20 17 15 11 8 1 1 3 4 2 2 2
7 8 14 16 14 8 13 5 8 11 8 9 2 4 7 6 10 2 8 9 10 11 11 11 10 12 13 15 17 16 16 16 17 13 10 7 7 4 3 5 4 3 2 2
14 9 9 17 19 20 10 13 12 8 4 7 9 2 5 6 5 2 6 10 13 14 12 12 11 14 14 14 14 15 15 15 12 10 9 6 4 4 5 5 4 5 5 5
19 10 10 18 18 16 15 21 18 10 10 7 7 11 11 4 3 1 7 11 13 13 12 12 14 15 13 12 13 14 14 13 12 10 7 4 7 8 8 8 7 5 6 5
17 10 11 11 15 10 14 16 13 14 11 10 10 8 5 1 2 3 12 13 12 14 15 13 13 12 13 15 16 16 15 15 13 13 13 13 13 12 10 8 6 5 5 4
13 17 15 12 16 18 19 18 15 18 13 12 10 14 9 8 2 4 11 14 14 14 15 14 13 11 17 18 18 18 17 17 17 15 14 14 12 11 10 9 8 6 6 5
14 18 11 14 13 10 20 21 20 18 17 17 12 13 9 13 7 3 11 14 15 16 17 16 15 14 19 20 19 18 18 18 18 17 15 14 13 11 10 8 6 6 5 4
15 11 14 15 14 10 13 16 18 17 19 10 14 16 14 9 2 5 9 16 16 17 18 18 18 17 21 22 21 21 20 19 18 17 17 15 13 11 9 7 6 4 4 4
13 10 8 14 10 12 15 16 14 13 13 13 16 16 15 10 10 5 8 17 19 18 19 20 21 20 24 25 25 23 22 20 19 18 17 15 13 11 9 7 5 5 4 3
6 11 8 6 7 12 8 12 11 8 10 14 17 18 15 9 14 11 9 17 20 19 20 20 20 25 25 24 23 23 22 22 20 18 17 15 12 10 8 6 4 4 4 4
7 6 4 6 11 6 9 7 9 11 9 7 10 15 13 10 13 18 11 13 18 19 19 23 28 28 27 27 26 24 22 21 20 18 16 14 11 10 9 7 6 5 4 5
6 7 8 5 11 11 12 11 4 3 10 4 2 7 8 8 10 3 2 12 18 18 23 26 29 29 28 27 28 26 23 22 20 17 15 13 11 9 9 8 6 6 5 5
8 7 11 9 9 8 8 6 4 9 3 5 8 8 10 10 9 7 10 10 15 20 25 28 30 29 29 29 28 26 23 20 19 19 16 14 12 11 10 9 8 7 5 4
7 6 7 3 5 11 6 6 6 5 4 8 8 9 10 10 10 9 6 10 13 18 24 29 27 27 28 28 27 24 21 20 19 18 15 14 13 11 11 10 7 6 5 4
8 5 7 4 4 5 4 8 6 7 7 7 9 10 10 10 7 2 4 11 13 16 23 26 25 27 27 27 24 22 21 21 19 17 14 13 12 10 10 9 7 7 4 4
2 2 4 4 12 6 5 6 7 10 8 9 9 10 9 9 8 3 3 10 12 16 20 23 25 25 26 25 24 27 27 24 19 15 13 13 11 10 8 7 6 4 4 2
6 0 3 9 12 9 7 6 6 6 6 8 9 8 8 8 6 3 4 7 10 15 19 22 23 20 21 26 29 27 31 28 21 16 12 11 9 9 8 4 4 3 2 1
5 6 7 8 4 4 6 6 7 7 6 7 7 7 5 5 4 1 2 6 8 10 13 16 20 22 22 16 25 24 22 28 25 16 13 11 10 10 9 9 7 6 5 4
Wind_Direction
205 233 231 250 21 344 318 320 336 80 155 258 256 267 231 192 207 203 194 192 186 198 195 201 204 211 214 216 220 220 221 221 217 215 221 232 235 240 247 248 255 262 275 268
204 227 242 53 316 305 305 308 56 130 245 253 279 275 218 207 207 212 204 205 202 186 187 195 205 209 212 215 220 222 224 221 218 217 215 217 230 231 236 238 239 240 264 250
228 217 224 244 258 275 284 312 349 349 289 245 282 252 200 207 216 208 220 212 210 207 195 194 201 210 211 217 221 224 225 222 213 211 207 209 220 228 230 238 261 233 209 239
236 235 220 229 254 289 291 17 277 284 289 342 316 323 161 195 207 216 218 218 216 208 210 216 207 210 214 220 223 223 224 216 206 201 206 212 219 223 216 203 203 254 237 201
219 226 216 238 241 345 324 332 316 300 280 279 148 264 107 165 217 228 220 225 215 216 207 211 218 215 213 217 221 214 212 208 201 201 209 213 221 227 194 204 202 208 211 158
248 209 229 238 226 236 318 240 237 245 256 248 66 314 183 73 6 307 137 210 214 202 210 215 216 223 220 213 217 203 199 190 194 199 208 213 211 201 172 209 216 213 215 252
217 220 221 244 232 196 240 256 260 246 223 54 38 288 4 11 340 265 244 80 181 188 200 202 203 207 209 201 192 191 191 191 194 198 209 214 215 197 211 203 236 198 244 245
205 210 214 202 232 229 220 257 275 244 309 346 146 260 44 17 103 91 148 139 149 179 179 195 190 191 185 180 184 185 187 191 194 199 205 213 217 232 280 308 231 207 261 328
212 229 183 211 211 230 201 234 266 297 236 254 303 295 266 100 112 176 174 161 156 139 141 153 163 155 160 169 178 182 185 191 194 197 205 205 207 249 245 114 77 126 148 3
198 246 198 207 228 211 265 3 215 219 267 271 295 257 254 326 9 138 170 170 136 136 142 145 142 145 149 148 162 171 178 183 192 195 196 197 197 200 165 125 68 353 327 26
237 234 190 207 209 213 191 230 243 312 308 302 284 281 75 306 18 357 158 148 147 144 142 142 141 141 137 138 146 151 163 167 174 184 193 191 193 168 130 100 71 83 81 70
221 220 229 210 226 227 248 219 232 225 223 234 298 285 291 320 336 221 160 148 146 144 145 145 137 134 137 139 138 138 143 151 165 176 182 171 144 130 122 122 113 110 108 108
201 224 224 225 184 205 232 232 252 257 261 281 283 290 79 289 219 196 163 151 151 152 154 154 146 142 147 143 139 139 139 141 145 151 149 135 124 124 120 119 114 112 101 101
204 230 226 224 225 211 213 228 225 242 242 244 236 280 310 315 280 179 179 168 157 158 162 166 160 155 149 143 144 144 147 146 146 149 142 128 118 122 130 130 131 129 123 119
225 226 230 239 253 248 213 221 221 233 251 266 285 292 299 303 331 291 197 181 166 162 163 161 154 159 153 152 151 151 150 148 149 144 135 128 131 134 129 123 116 111 110 115
225 240 232 230 228 232 247 240 241 217 251 273 275 278 283 307 351 274 201 182 182 172 166 162 155 162 161 157 158 157 155 152 151 147 142 139 136 136 132 131 127 131 127 125
211 222 212 230 204 226 231 236 214 222 223 248 256 260 262 295 299 281 214 192 190 179 169 164 166 167 165 164 162 160 157 156 156 151 145 144 146 147 143 132 144 143 119 115
195 217 229 237 176 219 223 188 216 238 279 280 262 266 278 315 307 296 237 199 193 180 169 167 165 166 166 164 163 156 159 159 157 155 153 151 151 138 134 140 148 143 146 136
251 215 179 218 217 224 168 163 196 215 275 299 284 257 265 305 301 274 215 210 190 182 172 170 166 163 164 163 160 158 161 162 161 161 156 156 154 154 152 165 165 172 163 138
227 253 265 179 269 227 232 134 152 261 254 112 275 298 299 295 284 20 302 187 178 174 171 167 163 159 162 161 161 163 166 166 164 162 160 160 160 166 168 168 174 151 145 141
199 237 236 219 243 255 101 130 155 228 349 19 358 340 320 303 306 350 336 191 173 167 164 162 160 162 163 162 163 165 165 169 164 160 157 159 159 160 164 161 151 151 160 136
232 242 223 238 265 249 115 131 246 25 355 358 350 342 328 318 299 287 303 193 171 165 160 162 160 158 160 163 164 163 162 157 153 150 153 151 160 161 154 149 156 168 150 158
244 279 306 287 350 66 172 301 340 347 335 348 338 332 324 314 320 323 208 176 169 167 163 165 157 155 160 164 163 153 139 149 150 145 150 157 159 151 150 157 170 183 179 252
161 352 258 312 246 305 345 331 309 302 304 320 322 322 318 320 321 287 189 181 169 166 175 163 156 159 157 158 157 147 149 149 142 145 155 158 154 158 169 174 185 192 185 193
24 37 270 254 268 300 89 27 12 340 311 303 306 311 316 315 336 323 194 189 177 170 173 161 164 153 146 141 137 149 149 147 139 154 164 162 159 174 160 152 179 154 95 30
198 253 251 287 44 328 328 357 346 322 323 324 309 314 317 302 310 342 158 167 164 132 159 140 136 135 130 136 148 154 152 138 145 155 167 167 161 166 172 170 165 156 153 173